This demonstration page uses our WeatherBlox Daily Observations layout. Learn more.

Left ArrowRight Arrow

39.92423, -83.80882

Hourly Observations for March 27, 2017

Temp ( °F °C ) Dew Point ( °F °C ) Humidity (%) Winds ( mph kmh ) Pressure ( in mb ) Visibility ( mi km ) Precip ( " mm )
12:03 am 00:03 Partly Cloudy 55 13 54 12 94 94 SW 9 15 29.97 1015 10 16.0934 0 0
12:56 am 00:56 Clear 53 11.7 51 10.6 93 93 SW 8 13 29.96 1015 10 16.0934 0 0
1:56 am 01:56 Clear 51 10.6 49 9.4 92 92 WSW 7 11 29.95 1014 10 16.0934 0 0
2:56 am 02:56 Clear 50 10 49 9.4 96 96 SSW 7 11 29.95 1014 8 12.87472 0 0
3:56 am 03:56 Clear 49 9.4 48 8.9 97 97 SW 7 11 29.96 1014 9 14.48406 0 0
4:56 am 04:56 Clear with Mist and Fog 48 8.9 47 8.3 96 96 SW 6 9 29.96 1014 5 8.0467 0 0
5:49 am 05:49 Mostly Cloudy with Mist and Fog 48 9 48 9 100 100 SW 8 13 30 1016 3 4.82802 0 0
5:56 am 05:56 Mostly Cloudy with Mist and Fog 50 10 49 9.4 96 96 SW 8 13 29.97 1015 4 6.43736 0 0
6:56 am 06:56 Cloudy 50 10 49 9.4 96 96 SSW 6 9 29.98 1015 7 11.26538 0 0
7:56 am 07:56 Cloudy with Mist and Fog 50 10 49 9.4 96 96 SW 7 11 29.99 1016 5 8.0467 0 0
8:56 am 08:56 Mostly Cloudy 52 11.1 50 10 93 93 SW 6 9 30.01 1016 10 16.0934 0 0
9:11 am 09:11 Partly Cloudy 54 12 50 10 88 88 SW 7 11 30 1016 10 16.0934 0 0
9:56 am 09:56 Mostly Sunny 55 12.8 51 10.6 87 87 SSW 7 11 30.01 1016 10 16.0934 0 0
10:56 am 10:56 Sunny 58 14.4 51 10.6 78 78 WSW 9 15 30.01 1016 10 16.0934 0 0
11:56 am 11:56 Mostly Sunny 60 15.6 49 9.4 67 67 W 8 13 29.99 1016 10 16.0934 0 0
12:56 pm 12:56 Partly Cloudy 62 16.7 51 10.6 67 67 WSW 6 9 29.98 1015 10 16.0934 0 0
1:56 pm 13:56 Mostly Sunny 64 17.8 51 10.6 63 63 SW 9 15 29.97 1015 10 16.0934 0 0
2:56 pm 14:56 Mostly Cloudy 63 17.2 50 10 63 63 SW 8 13 29.93 1014 10 16.0934 0 0
3:56 pm 15:56 Partly Cloudy 64 17.8 51 10.6 63 63 SE 6 9 29.89 1012 10 16.0934 0 0
4:56 pm 16:56 Cloudy 63 17.2 52 11.1 68 68 SSE 9 15 29.9 1013 10 16.0934 0 0
5:56 pm 17:56 Cloudy 62 16.7 53 11.7 73 73 SSE 9 15 29.88 1012 10 16.0934 0 0
6:56 pm 18:56 Mostly Cloudy 62 16.7 53 11.7 73 73 SE 7 11 29.88 1012 10 16.0934 0 0
7:56 pm 19:56 Mostly Cloudy 59 15 53 11.7 81 81 E 6 9 29.88 1012 10 16.0934 0 0
8:56 pm 20:56 Cloudy 57 13.9 52 11.1 83 83 E 6 9 29.87 1011 10 16.0934 0 0
9:56 pm 21:56 Cloudy with Light Rain 57 13.9 53 11.7 87 87 E 6 9 29.86 1011 10 16.0934 0 0.0254
10:56 pm 22:56 Cloudy with Rain 57 13.9 54 12.2 90 90 SSE 5 7 29.87 1011 9 14.48406 0.04 1.016
11:56 pm 23:56 Cloudy with Light Rain 57 13.9 55 12.8 93 93 SSE 6 9 29.85 1011 7 11.26538 0.04 1.016

Powered by AerisWeather